Time,TemperatureF,DewpointF,PressureIn,WindDirection,WindDirectionDegrees,WindSpeedMPH,WindSpeedGustMPH,Humidity,HourlyPrecipIn,Conditions,Clouds,dailyrainin,SolarRadiationWatts/m^2,SoftwareType,DateUTC
2016-12-09 00:04:00,22.0,19.0,30.26,WSW,250,4.0,12.0,88,-99.99,,,-99.99,0.000000,,2016-12-09 05:04:00,
2016-12-09 00:13:00,22.0,19.0,30.26,SW,232,5.0,17.0,88,-99.99,,,-99.99,,,2016-12-09 05:13:00,
2016-12-09 00:23:00,22.0,19.0,30.26,SW,233,5.0,-999.0,88,-99.99,,,-99.99,,,2016-12-09 05:23:00,
2016-12-09 00:34:00,22.0,19.0,30.26,SW,233,5.0,13.0,88,-99.99,,,-99.99,0.000000,,2016-12-09 05:34:00,
2016-12-09 00:44:00,22.0,19.0,30.26,SSW,209,3.0,13.0,88,-99.99,,,-99.99,0.000000,,2016-12-09 05:44:00,
2016-12-09 00:57:00,22.0,19.0,30.26,WSW,251,6.0,12.0,88,-99.99,,,-99.99,0.000000,,2016-12-09 05:57:00,
2016-12-09 01:06:00,22.0,19.0,30.26,WSW,251,6.0,12.0,88,-99.99,,,-99.99,0.000000,,2016-12-09 06:06:00,
2016-12-09 01:17:00,23.0,20.0,30.27,WSW,242,5.0,14.0,88,-99.99,,,-99.99,0.000000,,2016-12-09 06:17:00,
2016-12-09 01:25:00,22.0,19.0,30.27,WSW,240,5.0,15.0,87,-99.99,,,-99.99,0.000000,,2016-12-09 06:25:00,
2016-12-09 01:36:00,22.0,19.0,30.27,WSW,240,5.0,15.0,87,-99.99,,,-99.99,0.000000,,2016-12-09 06:36:00,
2016-12-09 01:46:00,22.0,19.0,30.27,SSW,207,4.0,15.0,87,-99.99,,,-99.99,0.000000,,2016-12-09 06:46:00,
2016-12-09 01:55:00,22.0,19.0,30.28,WSW,237,6.0,15.0,87,-99.99,,,-99.99,0.000000,,2016-12-09 06:55:00,
2016-12-09 02:07:00,22.0,19.0,30.28,WSW,237,6.0,15.0,87,-99.99,,,-99.99,0.000000,,2016-12-09 07:07:00,
2016-12-09 02:16:00,22.0,19.0,30.29,SW,235,6.0,16.0,87,-99.99,,,-99.99,0.000000,,2016-12-09 07:16:00,
2016-12-09 02:26:00,22.0,19.0,30.29,WSW,247,5.0,15.0,87,-99.99,,,-99.99,0.000000,,2016-12-09 07:26:00,
2016-12-09 02:37:00,22.0,19.0,30.29,WSW,247,5.0,15.0,87,-99.99,,,-99.99,0.000000,,2016-12-09 07:37:00,
2016-12-09 02:47:00,22.0,19.0,30.29,SW,229,5.0,16.0,87,-99.99,,,-99.99,0.000000,,2016-12-09 07:47:00,
2016-12-09 02:56:00,23.0,20.0,30.30,SW,230,3.0,15.0,87,-99.99,,,-99.99,0.000000,,2016-12-09 07:56:00,
2016-12-09 03:06:00,23.0,20.0,30.30,SW,230,3.0,15.0,87,-99.99,,,-99.99,0.000000,,2016-12-09 08:06:00,
2016-12-09 03:16:00,23.0,20.0,30.30,SW,215,5.0,13.0,87,-99.99,,,-99.99,0.000000,,2016-12-09 08:16:00,
2016-12-09 03:25:00,23.0,20.0,30.30,SW,236,5.0,18.0,87,-99.99,,,-99.99,0.000000,,2016-12-09 08:25:00,
2016-12-09 03:38:00,23.0,20.0,30.30,SW,236,5.0,18.0,87,-99.99,,,-99.99,0.000000,,2016-12-09 08:38:00,
2016-12-09 03:49:00,23.0,20.0,30.30,SW,221,4.0,13.0,87,-99.99,,,-99.99,0.000000,,2016-12-09 08:49:00,
2016-12-09 03:54:00,23.0,20.0,30.30,WSW,257,4.0,11.0,88,-99.99,,,-99.99,0.000000,,2016-12-09 08:54:00,
2016-12-09 04:05:00,23.0,20.0,30.30,WSW,257,4.0,11.0,88,-99.99,,,-99.99,0.000000,,2016-12-09 09:05:00,
2016-12-09 04:15:00,23.0,20.0,30.31,WSW,237,6.0,13.0,88,-99.99,,,-99.99,0.000000,,2016-12-09 09:15:00,
2016-12-09 04:23:00,23.0,20.0,30.30,SW,214,4.0,17.0,88,-99.99,,,-99.99,0.000000,,2016-12-09 09:23:00,
2016-12-09 04:33:00,23.0,20.0,30.30,SW,214,4.0,17.0,88,-99.99,,,-99.99,0.000000,,2016-12-09 09:33:00,
2016-12-09 04:44:00,23.0,20.0,30.30,SW,232,4.0,13.0,89,-99.99,,,-99.99,0.000000,,2016-12-09 09:44:00,
2016-12-09 04:53:00,23.0,20.0,30.30,WNW,291,8.0,14.0,89,-99.99,,,-99.99,0.000000,,2016-12-09 09:53:00,
2016-12-09 05:04:00,23.0,20.0,30.30,WNW,291,8.0,14.0,89,-99.99,,,-99.99,0.000000,,2016-12-09 10:04:00,
2016-12-09 05:13:00,23.0,20.0,30.31,SSW,213,4.0,13.0,89,-99.99,,,-99.99,0.000000,,2016-12-09 10:13:00,
2016-12-09 05:23:00,23.0,20.0,30.31,WSW,249,6.0,14.0,89,-99.99,,,-99.99,0.000000,,2016-12-09 10:23:00,
2016-12-09 05:44:00,23.0,20.0,30.32,SSW,213,6.0,16.0,89,-99.99,,,-99.99,0.000000,,2016-12-09 10:44:00,
2016-12-09 05:53:00,22.0,20.0,30.32,SW,234,4.0,12.0,90,-99.99,,,-99.99,0.000000,,2016-12-09 10:53:00,
2016-12-09 06:03:00,22.0,20.0,30.32,SW,234,4.0,12.0,90,-99.99,,,-99.99,0.000000,,2016-12-09 11:03:00,
2016-12-09 06:13:00,22.0,20.0,30.33,SW,215,3.0,12.0,91,-99.99,,,-99.99,0.000000,,2016-12-09 11:13:00,
2016-12-09 06:23:00,22.0,20.0,30.33,West,264,2.0,12.0,91,-99.99,,,-99.99,0.000000,,2016-12-09 11:23:00,
2016-12-09 06:34:00,22.0,20.0,30.33,West,264,2.0,12.0,91,-99.99,,,-99.99,0.000000,,2016-12-09 11:34:00,
2016-12-09 06:44:00,22.0,20.0,30.33,SW,227,2.0,14.0,91,-99.99,,,-99.99,0.000000,,2016-12-09 11:44:00,
2016-12-09 06:55:00,23.0,21.0,30.33,WSW,244,6.0,14.0,91,-99.99,,,-99.99,0.000000,,2016-12-09 11:55:00,
2016-12-09 07:06:00,23.0,21.0,30.33,WSW,244,6.0,14.0,91,-99.99,,,-99.99,0.000000,,2016-12-09 12:06:00,
2016-12-09 07:14:00,23.0,21.0,30.33,SSW,212,7.0,15.0,91,-99.99,,,-99.99,,,2016-12-09 12:14:00,
2016-12-09 07:25:00,23.0,21.0,30.34,SW,218,4.0,14.0,91,-99.99,,,-99.99,0.000000,,2016-12-09 12:25:00,
2016-12-09 07:37:00,23.0,21.0,30.34,SW,218,4.0,14.0,91,-99.99,,,-99.99,0.000000,,2016-12-09 12:37:00,
2016-12-09 07:45:00,23.0,21.0,30.34,SW,235,4.0,14.0,92,-99.99,,,-99.99,0.000000,,2016-12-09 12:45:00,
2016-12-09 07:55:00,23.0,21.0,30.34,WSW,244,5.0,14.0,92,-99.99,,,-99.99,0.000000,,2016-12-09 12:55:00,
2016-12-09 08:05:00,23.0,21.0,30.34,WSW,244,5.0,14.0,92,-99.99,,,-99.99,0.000000,,2016-12-09 13:05:00,
2016-12-09 08:14:00,23.0,21.0,30.35,SSW,211,7.0,15.0,92,-99.99,,,-99.99,0.000000,,2016-12-09 13:14:00,
2016-12-09 08:25:00,23.0,21.0,30.35,SSW,211,7.0,15.0,92,-99.99,,,-99.99,0.000000,,2016-12-09 13:25:00,
2016-12-09 08:35:00,23.0,21.0,30.35,WSW,255,7.0,14.0,91,-99.99,,,-99.99,11.000000,,2016-12-09 13:35:00,
2016-12-09 08:59:00,23.0,21.0,30.35,WSW,237,5.0,15.0,91,-99.99,,,-99.99,44.000000,,2016-12-09 13:59:00,
2016-12-09 09:11:00,23.0,21.0,30.35,WSW,237,5.0,15.0,91,-99.99,,,-99.99,44.000000,,2016-12-09 14:11:00,
2016-12-09 09:21:00,23.0,21.0,30.36,SW,233,4.0,12.0,92,-99.99,,,-99.99,125.000000,,2016-12-09 14:21:00,
2016-12-09 09:30:00,24.0,22.0,30.36,SW,235,4.0,14.0,92,-99.99,,,-99.99,72.000000,,2016-12-09 14:30:00,
2016-12-09 09:35:00,24.0,22.0,30.36,SW,235,4.0,14.0,92,-99.99,,,-99.99,72.000000,,2016-12-09 14:35:00,
2016-12-09 09:47:00,24.0,22.0,30.37,West,260,7.0,13.0,91,-99.99,,,-99.99,90.000000,,2016-12-09 14:47:00,
2016-12-09 10:07:00,24.0,22.0,30.38,WSW,238,9.0,15.0,91,-99.99,,,-99.99,95.000000,,2016-12-09 15:07:00,
2016-12-09 10:16:00,24.0,22.0,30.39,SW,232,7.0,14.0,91,-99.99,,,-99.99,77.000000,,2016-12-09 15:16:00,
2016-12-09 10:34:00,24.0,22.0,30.39,WSW,246,6.0,15.0,91,-99.99,,,-99.99,156.000000,,2016-12-09 15:34:00,
2016-12-09 10:44:00,24.0,22.0,30.40,SW,231,2.0,13.0,91,-99.99,,,-99.99,81.000000,,2016-12-09 15:44:00,
2016-12-09 10:54:00,24.0,22.0,30.40,SW,231,2.0,13.0,91,-99.99,,,-99.99,81.000000,,2016-12-09 15:54:00,
2016-12-09 11:04:00,24.0,22.0,30.40,SW,225,6.0,16.0,92,-99.99,,,-99.99,56.000000,,2016-12-09 16:04:00,
2016-12-09 11:13:00,24.0,22.0,30.40,SSW,206,0.0,14.0,93,-99.99,,,-99.99,346.000000,,2016-12-09 16:13:00,
2016-12-09 11:23:00,24.0,22.0,30.40,SSW,206,0.0,14.0,93,-99.99,,,-99.99,346.000000,,2016-12-09 16:23:00,
2016-12-09 11:44:00,24.0,23.0,30.40,SW,236,6.0,14.0,94,-99.99,,,-99.99,90.000000,,2016-12-09 16:44:00,
2016-12-09 12:04:00,24.0,23.0,30.40,SW,236,4.0,11.0,94,-99.99,,,-99.99,72.000000,,2016-12-09 17:04:00,
2016-12-09 12:13:00,25.0,24.0,30.39,WSW,252,6.0,12.0,94,-99.99,,,-99.99,279.000000,,2016-12-09 17:13:00,
2016-12-09 12:23:00,25.0,24.0,30.39,WSW,252,6.0,12.0,94,-99.99,,,-99.99,279.000000,,2016-12-09 17:23:00,
2016-12-09 12:49:00,27.0,25.0,30.39,West,265,1.0,-999.0,92,-99.99,,,-99.99,545.000000,,2016-12-09 17:49:00,
2016-12-09 12:55:00,27.0,25.0,30.39,West,265,1.0,8.0,92,-99.99,,,-99.99,545.000000,,2016-12-09 17:55:00,
2016-12-09 13:05:00,27.0,25.0,30.39,WSW,242,4.0,15.0,91,-99.99,,,-99.99,84.000000,,2016-12-09 18:05:00,
2016-12-09 13:15:00,26.0,23.0,30.39,WSW,248,4.0,11.0,90,-99.99,,,-99.99,102.000000,,2016-12-09 18:15:00,